EW3708 Weather Reports


time (UTC)temp
F
wind
direction
speed
knots
gust
knots
rain 1hr
in
rain 24hr
in
rain mn
in
humidity
%
barometer
mb
20260902220040 66 161 0.9 2.6 0.00 0.02 0.01 95 1016.9
20260902214536 66 170 0.0 1.7 0.00 0.11 0.01 96 1016.9
20260902213036 66 170 0.9 2.6 0.00 0.11 0.01 95 1017.0
20260902211537 66 160 0.0 1.7 0.00 0.11 0.01 95 1016.9
20260902210035 66 161 0.0 3.5 0.00 0.11 0.01 95 1016.6
20260902204539 66 38 0.0 1.7 0.00 0.13 0.01 95 1016.6
20260902203036 66 35 0.0 1.7 0.00 0.13 0.01 95 1016.6
20260902201539 67 215 0.0 2.6 0.00 0.13 0.01 95 1017.0
20260902200049 67 126 0.0 2.6 0.00 0.13 0.01 95 1017.0
20260902194532 67 173 0.0 2.6 0.00 0.13 0.01 95 1016.9
20260902193032 67 176 0.9 2.6 0.00 0.13 0.01 96 1017.2
20260902191534 67 204 0.0 2.6 0.00 0.13 0.01 96 1016.7
20260902190047 66 167 0.0 2.6 0.00 0.13 0.01 95 1016.9
20260902184533 66 160 0.0 1.7 0.00 0.13 0.01 95 1017.1
20260902183030 66 207 0.9 2.6 0.00 0.13 0.01 95 1017.3
20260902181530 66 155 0.0 4.3 0.00 0.13 0.01 95 1017.7
20260902180029 66 178 0.9 2.6 0.00 0.13 0.01 95 1018.1
20260902174528 66 178 0.0 1.7 0.00 0.13 0.01 95 1018.1
20260902173028 66 178 0.9 2.6 0.00 0.13 0.01 95 1018.3
20260902171528 66 179 0.0 1.7 0.00 0.13 0.01 95 1018.1
20260902170027 66 149 0.9 3.5 0.01 0.13 0.01 95 1018.0
20260902164525 66 148 0.0 2.6 0.01 0.13 0.01 95 1017.9
20260902163026 66 202 0.0 1.7 0.01 0.13 0.01 95 1017.9
20260902161530 66 202 0.0 2.6 0.01 0.13 0.01 95 1017.9
20260902160031 66 120 0.9 2.6 0.00 0.12 0.00 95 1017.8
20260902154527 66 178 0.9 2.6 0.00 0.12 0.00 95 1018.0
20260902153024 66 232 0.0 1.7 0.00 0.12 0.00 95 1018.0
20260902151523 66 132 0.9 2.6 0.00 0.12 0.00 94 1018.1
20260902150023 66 92 0.9 2.6 0.00 0.12 0.00 95 1018.0
20260902144521 66 205 0.9 2.6 0.00 0.13 0.00 95 1017.9
20260902143021 66 192 0.9 1.7 0.00 0.13 0.00 95 1017.9
20260902141532 66 204 0.9 1.7 0.00 0.13 0.00 95 1018.4
20260902140018 66 238 0.0 1.7 0.00 0.13 0.00 95 1018.3
20260902134516 66 200 0.9 2.6 0.00 0.13 0.00 95 1017.8
20260902133014 66 146 0.0 1.7 0.00 0.13 0.00 95 1017.7
20260902131521 66 146 0.0 1.7 0.00 0.13 0.00 95 1017.5
20260902130013 66 246 0.9 2.6 0.00 0.13 0.00 95 1017.4
20260902124510 66 188 0.9 2.6 0.00 0.13 0.00 95 1017.4
20260902123010 66 138 0.9 2.6 0.00 0.13 0.00 95 1017.3
20260902121509 66 75 0.0 0.9 0.00 0.13 0.00 95 1017.2
20260902120008 66 75 0.0 0.9 0.00 0.13 0.00 95 1017.0
20260902114511 66 75 0.0 1.7 0.00 0.13 0.00 95 1017.0
20260902113004 67 75 0.0 1.7 0.00 0.13 0.00 95 1017.2
20260902111503 67 75 0.0 0.9 0.00 0.13 0.00 95 1017.1
20260902110006 67 75 0.0 0.9 0.00 0.13 0.00 95 1017.1
20260902104505 67 75 0.0 1.7 0.00 0.13 0.00 95 1016.7
20260902103100 67 75 0.0 1.7 0.00 0.13 0.00 94 1016.8
20260902101617 68 221 0.0 1.7 0.00 0.13 0.00 95 1016.9
20260902100058 69 244 0.0 1.7 0.00 0.13 0.00 94 1016.7
20260902094556 69 236 0.0 1.7 0.00 0.13 0.00 95 1016.5
20260902093055 69 236 0.9 1.7 0.00 0.13 0.00 95 1016.3
20260902091555 69 236 0.0 0.9 0.00 0.13 0.00 95 1016.4
20260902090054 69 236 0.0 1.7 0.00 0.13 0.00 95 1016.3
20260902084556 69 236 0.0 0.9 0.00 0.13 0.00 95 1016.2
20260902083053 69 236 0.0 0.9 0.00 0.13 0.00 95 1016.0
20260902081553 69 236 0.0 0.9 0.00 0.13 0.00 95 1015.9
20260902080104 69 236 0.0 0.9 0.00 0.13 0.00 95 1015.8
20260902074552 69 236 0.0 1.7 0.00 0.13 0.00 95 1015.8
20260902073055 70 236 0.0 0.9 0.00 0.13 0.00 95 1015.8
20260902071555 70 236 0.0 1.7 0.00 0.13 0.00 95 1015.9
20260902070054 70 235 0.0 0.0 0.00 0.13 0.00 95 1015.8
20260902064601 70 235 0.0 0.9 0.00 0.13 0.00 95 1015.7
20260902063049 70 235 0.0 0.9 0.00 0.13 0.00 95 1015.8
20260902061556 70 248 0.0 1.7 0.00 0.13 0.00 95 1016.1
20260902060048 70 238 0.0 2.6 0.00 0.13 0.00 96 1016.3
20260902054550 70 111 0.0 1.7 0.00 0.13 0.00 95 1016.3
20260902053044 69 111 0.0 0.9 0.00 0.13 0.00 95 1016.4
20260902051541 68 111 0.0 0.0 0.00 0.13 0.00 95 1016.3
20260902050041 68 111 0.0 0.0 0.00 0.13 0.00 95 1016.2
20260902044538 68 111 0.0 0.0 0.00 0.13 0.00 95 1016.1
20260902043038 68 111 0.0 0.0 0.00 0.13 0.00 94 1016.2
20260902041536 68 111 0.0 0.0 0.00 0.13 0.00 94 1016.0
20260902040034 68 111 0.0 0.0 0.00 0.13 0.00 94 1015.7
20260902034532 68 111 0.0 0.0 0.00 0.13 0.13 94 1015.7
20260902033039 68 111 0.0 0.0 0.00 0.13 0.13 94 1015.5
20260902031534 68 111 0.0 0.0 0.00 0.13 0.13 94 1015.4
20260902030031 67 111 0.0 0.0 0.00 0.13 0.13 93 1015.4
20260902024530 68 111 0.0 0.0 0.00 0.13 0.13 94 1014.8
20260902023030 68 111 0.0 0.0 0.00 0.13 0.13 94 1014.4
20260902021535 68 111 0.0 0.0 0.00 0.13 0.13 93 1014.6
20260902020029 68 111 0.0 0.0 0.00 0.13 0.13 93 1014.4
20260902014536 69 111 0.0 0.0 0.00 0.13 0.13 93 1014.3
20260902013030 69 111 0.0 0.0 0.00 0.13 0.13 93 1014.2
20260902011535 69 111 0.0 0.0 0.00 0.13 0.13 93 1014.5
20260902010042 69 111 0.0 0.0 0.00 0.13 0.13 93 1014.9
20260902004533 69 111 0.0 0.0 0.00 0.13 0.13 93 1014.7
20260902003026 70 111 0.0 0.0 0.01 0.13 0.13 93 1014.2
20260902001526 70 111 0.0 0.0 0.01 0.13 0.13 93 1013.4
20260902000043 70 111 0.0 0.0 0.01 0.13 0.13 93 1013.0
20260901234551 70 111 0.0 0.0 0.01 0.13 0.13 93 1012.8
20260901233024 70 111 0.0 0.0 0.00 0.12 0.12 93 1013.1
20260901231538 70 111 0.0 0.0 0.00 0.12 0.12 93 1013.3
20260901230026 70 111 0.0 0.0 0.00 0.12 0.12 93 1013.1
20260901224530 71 111 0.0 0.0 0.00 0.12 0.12 92 1013.3
20260901223034 71 111 0.0 0.9 0.01 0.12 0.12 92 1013.4
20260901221528 71 111 0.0 1.7 0.07 0.12 0.12 92 1013.5